www.pogodaiklimat.ru

Погода и климат >> Архив погоды >> Россия >> Сахалинская область >> Южно-Сахалинск


АРХИВ ПОГОДЫ в Южно-Сахалинске

Время (UTC), дата Ветер
(напр.,м/с)
 
Видим.   Явления Облачность Т
(С)
Тd
(С)
f
(%)
Тe
(С)
Тes
(С)
Комфортность P
(гПа)
Po
(гПа)
Тmin
(С)
Tmax
(С)
R
(мм)
R24
(мм)
S
(см)
00 12.09 С 3-5
{6}
20 км {ливн. осадки} 9/6 600 м
[Cb calv Ac trans]
+14.5 +11.6 83 +14 +15 по сезону 1014.7 1012.1
03 12.09 В 2-3
{5}
20 км в посл. час ливневой дождь 8/5 600 м
[Cb cap Ac trans]
+15.6 +10.8 73 +16 +19 по сезону 1014.4 1011.8
06 12.09 Ю 1-2
{6}
20 км в посл. час ливневой дождь 8/4 600 м
[Cb cap Ac trans]
+13.9 +11.6 86 +14 +16 прохладно 1015.4 1012.7
09 12.09 штиль 0
{3}
20 км 4/3 600 м
[Cb calv Ac trans]
+12.5 +10.7 89 +12 +12 прохладно 1015.7 1013.1 +18.0 5
12 12.09 СЗ 1-2
{2}
4000 м 3/0
[Ac trans]
+9.1 +8.1 93 +8 +8 прохладно 1017.4 1014.7
15 12.09 С 1-1
{2}
4000 м 3/0
[Ci fib]
+7.0 +6.1 94 +6 +6 прохладно 1017.5 1014.8
18 12.09 СЗ 1-2
{3}
4000 м ясно +5.6 +4.7 94 +4 +4 холодно 1017.3 1014.6
21 12.09 СЗ 1-1
{2}
20 км 1/1 1000 м
[Cu hum]
+6.0 +5.1 94 +5 +5 холодно 1018.4 1015.7 +4.9
00 13.09 ЮЗ 1-2
{2}
20 км 1/1 1000 м
[Cu hum]
+17.0 +11.3 69 +18 +26 тепло 1018.4 1015.8
03 13.09 Ю 1-2
{5}
20 км 3/3 1000 м
[Cu hum]
+21.5 +7.2 40 +22 +31 комфорт 1017.2 1014.6
06 13.09 Ю 4-7
{7}
20 км 10/3 1000 м
[Cu hum Ci fib]
+20.1 +10.4 54 +22 +23 комфорт 1015.9 1013.3
09 13.09 ЮЗ 1-2
{7}
20 км 1/1 1000 м
[Sc diur, vesp]
+14.4 +8.9 70 +15 +15 по сезону 1017.1 1014.4 +22.4
12 13.09 Ю 1-1
{2}
4000 м 10/0
[Cs]
+9.3 +8.2 93 +9 +9 по сезону 1016.9 1014.2
15 13.09 Ю 1-2
{2}
4000 м 10/3 600 м
[Sc Cs]
+8.3 +7.4 94 +7 +7 прохладно 1015.9 1013.2
18 13.09 Ю 1-1
{3}
4000 м 10/3 300 м
[St Cs]
+9.8 +8.8 93 +9 +9 по сезону 1013.7 1011.0
21 13.09 Ю 2-3
{5}
20 км 10/3 300 м
[St As op]
+13.5 +12.3 92 +13 +13 по сезону 1012.7 1010.1 +7.9
00 14.09 Ю 4-7
{9}
20 км 10/8 800 м
[Cb calv Ac und]
+16.9 +13.8 82 +16 +17 по сезону 1010.6 1008.0
03 14.09 Ю 5-10
{10}
20 км слаб. ливневой дождь 10/4 600 м
[Cb cap As op]
+17.6 +14.4 82 +17 +18 по сезону 1008.1 1005.5
06 14.09 Ю 3-6
{10}
20 км слаб. ливневой дождь 10/8 600 м
[Cb cap Ac und]
+17.4 +15.4 88 +17 +18 по сезону 1006.7 1004.1
09 14.09 Ю 2-4
{8}
4000 м слаб. ливневой дождь 10/10 600 м
[Cb cap]
+16.0 +14.3 90 +16 +16 тепло 1006.9 1004.3 +17.9 1
12 14.09 ЮВ 1-2
{4}
4000 м {ливн. осадки} 8/3 600 м
[Cb calv Ac trans]
+14.5 +13.3 93 +15 +15 тепло 1008.3 1005.7
15 14.09 штиль 0
{2}
1000 м дымка ясно +9.9 +9.0 94 +9 +9 по сезону 1009.1 1006.4
18 14.09 СЗ 1-1
{3}
4000 м дымка {туман} ясно +8.9 +8.1 95 +8 +8 по сезону 1010.0 1007.3
21 14.09 С 2-3
{3}
20 км 3/0
[Ac trans]
+9.7 +8.8 94 +8 +8 прохладно 1011.7 1009.0 +8.4 0.0
00 15.09 С 2-3
{4}
20 км 1/1 1000 м
[Cu hum]
+19.2 +11.5 61 +21 +27 комфорт 1012.2 1009.6
03 15.09 Ю 2-4
{5}
20 км 3/3 1000 м
[Cu med, cong]
+23.4 +9.8 42 +25 +33 комфорт 1011.7 1009.2
06 15.09 Ю 4-6
{7}
20 км 3/3 1000 м
[Cu med, cong]
+22.0 +9.1 44 +23 +25 комфорт 1011.7 1009.2
09 15.09 Ю 1-2
{7}
20 км 3/3 1000 м
[Sc]
+14.5 +11.6 83 +15 +15 по сезону 1013.3 1010.6 +23.6
12 15.09 штиль 0
{2}
4000 м туман поземный ясно +9.8 +8.7 93 +9 +9 по сезону 1014.4 1011.7
15 15.09 СЗ 1-1
{1}
4000 м туман поземный 8/8 1000 м
[Sc]
+9.0 +8.1 94 +8 +8 по сезону 1014.2 1011.5
18 15.09 З 1-1
{1}
4000 м 10/8 300 м
[St Ci fib]
+7.6 +6.7 94 +7 +7 по сезону 1014.1 1011.4
21 15.09 штиль 0
{2}
10 км 9/8 480 м
[St Ac lent]
+10.3 +9.4 94 +9 +9 по сезону 1013.1 1010.4 +7.3
00 16.09 ЮВ 3-6
{7}
10 км 10/4 300 м
[St As trans]
+16.0 +13.0 82 +16 +17 тепло 1012.4 1009.8
03 16.09 Ю 2-4
{6}
20 км 10/4 600 м
[Cu med, cong Ac As Ci sp]
+18.1 +12.0 68 +19 +22 тепло 1010.1 1007.5
06 16.09 Ю 2-3
{5}
20 км 9/6 600 м
[Sc diur, vesp Ac lent]
+17.3 +12.9 75 +18 +18 по сезону 1008.8 1006.2
09 16.09 штиль 0
{4}
20 км 9/4 600 м
[Cb calv Ac trans]
+15.7 +12.8 83 +15 +15 по сезону 1008.3 1005.7 +18.4
12 16.09 С 1-3
{3}
4000 м 3/0
[Ac trans]
+12.9 +11.4 91 +13 +13 тепло 1007.8 1005.2
15 16.09 С 2-4
{5}
500 м туман ясно +11.6 +10.7 94 +10 +10 по сезону 1007.5 1004.9
18 16.09 СЗ 2-4
{5}
500 м туман ясно +11.1 +10.2 94 +10 +10 по сезону 1007.7 1005.0
21 16.09 С 2-3
{5}
20 км {туман} 3/3 1000 м
[Cu med, cong]
+8.7 +7.9 95 +7 +7 прохладно 1008.5 1005.8 +8.5
00 17.09 С 2-5
{6}
20 км {туман} 1/1 1000 м
[Cu hum]
+17.0 +9.0 59 +17 +23 тепло 1009.0 1006.4
03 17.09 СЗ 3-7
{7}
20 км 1/1 1000 м
[Cu hum]
+20.2 +2.5 31 +21 +29 комфорт 1008.3 1005.8
06 17.09 З 3-6
{10}
20 км ясно +18.4 -0.3 28 +19 +22 тепло 1009.2 1006.6
09 17.09 СЗ 2-3
{7}
20 км ясно +12.1 +5.4 64 +11 +11 прохладно 1011.8 1009.1 +20.3
12 17.09 СЗ 1-1
{4}
4000 м ясно +7.2 +5.2 87 +6 +6 прохладно 1013.7 1011.0
15 17.09 СЗ 1-2
{3}
4000 м ясно +4.9 +3.0 87 +4 +4 прохладно 1014.3 1011.6
18 17.09 С 1-2
{3}
4000 м 4/0
[Ci fib]
+3.4 +1.7 89 +2 +2 холодно 1014.2 1011.5
21 17.09 С 1-1
{2}
20 км 9/0
[Ac lent]
+3.6 +2.3 91 +2 +2 очень
холодно
1014.3 1011.6 +2.4
00 18.09 З 1-1
{2}
20 км 8/1 300 м
[St Ac lent Ci]
+13.0 +6.7 66 +13 +17 по сезону 1012.5 1009.9
03 18.09 В 4-7
{9}
20 км 8/8 1000 м
[Cu med, cong]
+17.2 +8.1 55 +17 +18 тепло 1009.6 1007.0
06 18.09 Ю 5-9
{10}
20 км 9/4 600 м
[Cu med, cong Ci sp]
+17.1 +6.2 49 +16 +17 по сезону 1007.0 1004.4
09 18.09 Ю 3-6
{10}
20 км 10/8 800 м
[Cb calv Ac und]
+14.2 +8.7 69 +13 +13 по сезону 1004.7 1002.1 +18.8
12 18.09 ЮВ 6-11
{11}
4000 м слаб. ливневой дождь 9/9 600 м
[Cb cap]
+15.1 +11.5 79 +13 +13 тепло 1000.5 997.9
15 18.09 Ю 2-2
{11}
4000 м {ливн. осадки} 3/1 600 м
[Cb calv Ac trans Ci fib]
+10.1 +7.3 83 +9 +9 по сезону 1001.1 998.4
18 18.09 Ю 2-4
{4}
4000 м {ливн. осадки} 3/0
[Ci fib]
+7.0 +5.3 89 +5 +5 по сезону 1001.6 998.9

 

Местоположение метеостанции Южно-Сахалинск (Сахалинская область, Россия): широта 46.95 долгота 142.70 высота над уровнем моря 24 м.

В архиве по умолчанию представлена погода в Южно-Сахалинске за последнюю неделю. Архивные данные за месяц целиком и за предыдущие месяцы, начиная с января 2011 года, Вы можете получить, выбрав интересующий диапазон дат из раскрывающегося списка и нажав кнопку "Ввод!".


*Определитесь, кто Вы:
робот инопланетянин человек

Внимание! Время в таблицах - всемирное. Для получения местного времени необходимо прибавить поправку, которая равна 11 ч.

Смотрите также архив погоды в соседних городах и на ближайших метеорологических станциях:

Погода в Огоньках (Сахалинская область, Россия) (30 км)
Погода в Корсакове (Сахалинская область, Россия) (33 км)
Погода в Долинске (Сахалинская область, Россия) (43 км)
Погода в Мальково (Сахалинская область, Россия) (49 км)
Погода в Стародубском (Сахалинская область, Россия) (53 км)
Погода в Холмске (Сахалинская область, Россия) (54 км)
Погода в Невельске (Сахалинская область, Россия) (75 км)
Погода в Новиково (Сахалинская область, Россия) (78 км)
Погода в Ильинском (Сахалинская область, Россия) (121 км)
Погода на Мысе Крильон (Сахалинская область, Россия) (129 км)

Пояснения к столбцам:

Ветер - указаны скорость ветра в м/с - средняя за 10 мин, порывы в срок и между сроками (в фигурных скобках) и направление, откуда дует ветер: С - северный, СВ - северо-восточный, В - восточный, ЮВ - юго-восточный, Ю - южный, ЮЗ - юго-западный, З - западный, СЗ - северо-западный.
Видимость - горизонтальная дальность видимости в метрах или километрах. При видимости от 1 до 10 км при отсутствии осадков обычно наблюдается дымка, при ухудшении видимости до 1 км и менее - туман. В сухую погоду видимость может ухудшаться дымом, пылью или мглою.
Явления - указаны атмосферные явления, наблюдавшиеся в срок или в последний час перед сроком; фигурными скобками обозначены явления, наблюдавшиеся между сроками (за 1-3 часа до срока); квадратными скобками обозначены град или гололедные отложения с указанием их диаметра в мм.
Облачность - указаны через наклонную черту общая и нижняя облачность в баллах и высота нижней границы облаков в метрах; квадратными скобками обозначены формы облаков: Ci - перистые, Cs - перисто-слоистые, Cc - перисто-кучевые, Ac - высококучевые, As - высокослоистые, Sc - слоисто-кучевые, Ns - слоисто-дождевые, Cu - кучевые, Cb - кучево-дождевые. Подробнее классификацию облаков см. в Атласе облаков (PDF).
T - Температура воздуха - температура, измеренная на высоте 2 м над землей.
Td - Температура точки росы - температура, при понижении до которой содержащийся в воздухе водяной пар достигнет насыщения.
f - Относительная влажность воздуха - влажноcть воздуха, измеренная на высоте 2 м над землей.
Te - Эффективная температура - температура, которую ощущает одетый по сезону человек в тени. Характеристика душности погоды. При расчете учитывается влияние влажности воздуха и скорости ветра на теплоощущения человека.
Tes - Эффективная температура на солнце - температура, которую ощущает человек, с поправкой на солнечный нагрев. Характеристика знойности погоды. Зависит от высоты солнца над горизонтом, облачности и скорости ветра. Ночью, в пасмурную погоду, а также при ветре 12 м/с и более поправка равна нулю.
P - Атмосферное давление - приведенное к уровню моря атмосферное давление.
Po - Атмосферное давление - измеренное на уровне метеостанции атмосферное давление.
Tmin - Минимальная температура - минимум температуры воздуха на высоте 2 м над землей.
Tmax - Максимальная температура - максимум температуры воздуха на высоте 2 м над землей.
R - Количество осадков - Количество выпавших осадков за период времени, мм. При наведении курсора мыши на число - период времени, за который выпало указанное количество осадков.
R24 - Количество осадков - Количество выпавших осадков за 24 часа, мм.
S - Снежный покров - Высота снежного покрова, см. При наведении курсора мыши на число - состояние снежного покрова и степень покрытия местности в баллах.